Regional Weather Roundup
Issued by NWS

Home | Current Version | Previous Version | Text Only | Print | Product List | Glossary On
Versions: 1 2 3 4 5 6 7 8 9 10 11 12 13 14 15 16 17 18 19 20 21 22 23 24 25 26 27 28 29 30 31 32 33 34 35 36 37 38 39 40 41 42 43 44 45 46 47 48 49 50
000
ASUS43 KMKX 070500
RWRWI

WISCONSIN REGIONAL WEATHER ROUNDUP
NATIONAL WEATHER SERVICE MILWAUKEE/SULLIVAN WI
1200 AM CDT THU MAY 07 2015

NOTE: "FAIR" INDICATES FEW OR NO CLOUDS BELOW 12,000 FEET WITH NO
SIGNIFICANT WEATHER AND/OR OBSTRUCTIONS TO VISIBILITY.

WIZ001-002-006>008-014>016-023>028-070600-
NORTHWEST WISCONSIN

CITY           SKY/WX    TMP DP  RH WIND       PRES   REMARKS
SUPERIOR ARPT  CLOUDY    43  37  79 NE8       29.94S
ASHLAND        CLOUDY    54  53  97 CALM      29.95F
HAYWARD        CLOUDY    63  59  87 SE15      29.94F
SIREN          MOCLDY    66  58  74 SE10      29.90S
CUMBERLAND     CLOUDY    61  57  88 SE8       29.93F
RICE LAKE      CLOUDY    62  59  89 SE12      29.95S
CHETEK         CLOUDY    62  61  96 E12       29.95S
LADYSMITH      DRIZZLE   63  60  91 SE8       30.00F
EAU CLAIRE     CLOUDY    63  59  87 SE8       29.94F
MENOMONIE      MOCLDY    63  61  93 E8        29.93F
NEW RICHMOND   MOCLDY    63  59  86 SE8       29.90S
OSCEOLA        MOCLDY    65  60  82 SE13      29.91S
$$

WIZ003>005-009-010-017-018-070600-
NORTH CENTRAL WISCONSIN

CITY           SKY/WX    TMP DP  RH WIND       PRES   REMARKS
MANITOWISH WTR CLOUDY    62  57  84 S7        30.03R
ARBOR VITAE    MOCLDY    62  56  81 S7        30.04R
WOODRUFF       MOCLDY    62  56  81 S7        30.04R
RHINELANDER    PTCLDY    58  54  86 SE7       30.05S
EAGLE RIVER    MOCLDY    59  52  79 SE6       30.05S
LAND O LAKES   PTCLDY    59  53  79 SE5       30.06S
PHILLIPS       LGT RAIN  62  58  88 S7        30.02S
TOMAHAWK       MOCLDY    59  55  87 CALM      30.05R
MEDFORD        DRIZZLE   61  58  90 SE6       30.02F
MERRILL        MOCLDY    60  57  91 W5        30.05S
$$

WIZ029-030-035-036-043>047-070600-
CENTRAL WISCONSIN

CITY           SKY/WX    TMP DP  RH WIND       PRES   REMARKS
WAUSAU         MOCLDY    60  56  86 SE8       30.03R
MOSINEE        PTCLDY    59  55  88 SE7       30.05R
MARSHFIELD     MOCLDY    63  57  81 E7        30.02F
STEVENS POINT  PTCLDY    59  55  85 SE3       30.05R
WAUPACA        PTCLDY    60  55  86 E3        30.05S HAZE
WAUTOMA        NOT AVBL
WISC RAPIDS    PTCLDY    63  56  78 SE6       30.04S
CAMP DOUGLAS   NOT AVBL
$$

WIZ011>013-019>022-031-037>040-048>050-070600-
NORTHEAST WISCONSIN

CITY           SKY/WX    TMP DP  RH WIND       PRES   REMARKS
ANTIGO         PTCLDY    55  54  94 SE9       30.06S
SHAWANO        PTCLDY    56  53  89 E5        30.08R FOG
OCONTO         MOCLDY    50  43  76 E3        30.08F
STURGEON BAY   MOCLDY    48  36  61 SE9       30.11S
GREEN BAY      PTCLDY    52  50  93 E5        30.08S FOG
MANITOWOC      NOT AVBL
APPLETON       PTCLDY    57  52  82 E6        30.06F
CLINTONVILLE   PTCLDY    57  54  88 E3        30.06S FOG
OSHKOSH        PTCLDY    57  53  86 S5        30.05S
$$

WIZ032>034-041-042-053>061-070600-
SOUTHWEST WISCONSIN

CITY           SKY/WX    TMP DP  RH WIND       PRES   REMARKS
LA CROSSE      CLOUDY    65  60  84 CALM      29.95S
SPARTA         CLOUDY    63  61  93 E3        29.99S
VIROQUA        CLOUDY    65  58  76 SE7       30.00S
BOSCOBEL       CLOUDY    65  59  81 N5        29.99S
PRAIRIE DU CHI CLOUDY    65  57  76 E3        29.97S
PLATTEVILLE    CLOUDY    65  60  84 E8        30.00S
$$

WIZ056-057-062-063-064-067-068-070600-
SOUTH CENTRAL WISCONSIN

CITY           SKY/WX    TMP DP  RH WIND       PRES   REMARKS
REEDSBURG      CLOUDY    65  61  87 E6        30.00F
BARABOO/DELLS  MOCLDY    63  58  86 E3        30.03S HAZE
LONE ROCK      NOT AVBL
MINERAL POINT  CLOUDY    66  59  77 E7        30.02S
MADISON        PTCLDY    61  56  83 SE8       30.04R HAZE
MIDDLETON      MOCLDY    64  59  85 E6        30.04S
WATERTOWN      CLEAR     57  57 100 E7        30.04S FOG
MONROE         PTCLDY    63  59  88 SE7       30.03S
JANESVILLE     PTCLDY    61  57  88 SW3       30.04R FOG
$$

WIZ051-052-058>065-066-070>072-070600-
SOUTHEAST WISCONSIN

CITY           SKY/WX    TMP DP  RH WIND       PRES   REMARKS
MILWAUKEE      FOG       46  45  96 CALM      30.09F VSB 1/8
WAUKESHA       PTCLDY    48  46  93 CALM      30.09S FOG
MILWAUKEE/TIMM FOG       46  45  93 NE3       30.09S VSB 1/2
RACINE         FOG       46  44  93 CALM      30.09F VSB 1/2
BURLINGTON     PTCLDY    52  51  99 CALM      30.08S FOG
KENOSHA        FOG       47  46  97 E3        30.08S VSB 1/4
FOND DU LAC    PTCLDY    56  52  86 SE9       30.05S FOG
SHEBOYGAN      FOG       45  44  97 CALM      30.09S VSB 1/2
WEST BEND      FOG       50  48  93 CALM      30.09R VSB 1/4
JUNEAU         CLEAR     58  55  88 E12       30.06S FOG
$$

LSZ147-162-070600-
LAKE SUPERIOR

STATION/POSITION TIME  TEMP    WIND        PRES    WAVE
                       AIR SEA DIR/SP/G            HT/PER
                 (UTC) (F)     (DEG/KT/KT) (MB)    (FT/S)
W MID LAKE BUOY  0350   43 35  110/ 10/ 12 1015.4F   1/ 3
DEVILS ISLAND    0400   43     110/  9/  9 1014.8F
PORT WING        0400   42      40/  6/  7 1013.9F
SAXON HARBOR     0430          210/  3/  8 1014.2R
$$

LMZ867-665-643>646-070600-
LAKE MICHIGAN

STATION/POSITION TIME  TEMP    WIND        PRES    WAVE
                       AIR SEA DIR/SP/G            HT/PER
                 (UTC) (F)     (DEG/KT/KT) (MB)    (FT/S)
CHAMBERS ISLAND  0400   52      80/  4/  5 1019.0F
NORTHPORT PIER   0400   49     150/  3/  4 1019.3S
SISTER BAY       0402   50     150/  7/  9   N/A
KEWAUNEE LAKESHO 0400           CALM  /  1   N/A
SHEBOYGAN LAKESH 0400   48     290/  1/  2 1019.5F
PORT WASHINGTON  0400   45     330/  2/  3 1019.6
ATWATER BUOY     0400   44     330/  6/  6 1020.2S
MILWAUKEE LAKESH 0400   45      20/  4/  4   N/A
KENOSHA   LAKESH 0400   45      20/  3/  3 1019.0S
$$

TC  - TEMPERATURE IN CELSIUS
VSB - VISIBILITY IN STATUTE MILES
WCI - WIND CHILL INDEX
HX  - HEAT INDEX



USA.gov is the U.S. government's official web portal to all federal, state and local government web resources and services.